Weather History for Adrar, Algeria

Change the Weather History Date:

Thursday, October 4, 2012

  Actual Average Record
Temperature  
Mean Temperature 90 °F -  
Max Temperature 106 °F 90 °F - ()
Min Temperature 73 °F 60 °F - ()
Cooling Degree Days 24    
Growing Degree Days 40 (Base 50)    
Moisture  
Dew Point 52 °F    
Average Humidity 26    
Maximum Humidity 45    
Minimum Humidity 11    
Precipitation  
Precipitation 0.00 in 0.00 in - ()
Sea Level Pressure  
Sea Level Pressure 29.96 in    
Wind  
Wind Speed 9 mph ()    
Max Wind Speed 20 mph    
Max Gust Speed -    
Visibility 5.5 miles    
Events      
T = Trace of Precipitation, MM = Missing Value Source: Averaged Metar Reports

Daily Weather History Graph

Daily Weather History Graph

Search for Another Location

Airport:

Trip Planner

Search our weather history database for the weather conditions in past years. The results will help you decide how hot, cold, wet, or windy it might be!

Date:

Astronomy

Oct. 04, 2012 Rise Set
Actual Time 6:55 AM CET 6:43 PM CET
Civil Twilight 6:31 AM CET 7:06 PM CET
Nautical Twilight 6:04 AM CET 7:33 PM CET
Astronomical Twilight 5:37 AM CET 8:00 PM CET
Moon 9:30 PM CET (10/4) 10:36 AM CET (10/4)
Length of Visible Light 12h 34m
Length of Day
11h 47m
Waning Gibbous, 83% of the Moon is Illuminated
Oct 4
Waning Gibbous
Oct 8
Last Quarter
Oct 15
New
Oct 22
First Quarter
Oct 29
Full

Hourly Weather History & Observations

Time (CET) Temp. Heat Index Dew Point Humidity Pressure Visibility Wind Dir Wind Speed Gust Speed Precip Events Conditions
12:00 AM 84.2 °F - 44.6 °F 25% 30.01 in 6.2 mi ENE 11.5 mph - N/A   Partly Cloudy
1:00 AM 82 °F - 45 °F 17% 29.93 in 6 mi 10.4 mph - -   Scattered Clouds
1:00 AM 82.4 °F - 44.6 °F 26% 29.98 in - NE 10.4 mph - N/A   Clear
2:00 AM 82.4 °F - 44.6 °F 26% 29.98 in - NE 10.4 mph - N/A   Clear
3:00 AM 80.6 °F - 44.6 °F 28% 29.98 in - ENE 11.5 mph - N/A   Clear
4:00 AM 77.0 °F - 50.0 °F 39% 29.95 in - ENE 10.4 mph - N/A   Clear
5:00 AM 75.2 °F - 50.0 °F 41% 29.95 in - ENE 8.1 mph - N/A   Clear
6:00 AM 75.2 °F - 50.0 °F 41% 29.98 in - ENE 8.1 mph - N/A   Clear
7:00 AM 75 °F - 52 °F 34% 29.94 in 6 mi East 13.8 mph - -   Partly Cloudy
7:00 AM 75.2 °F - 51.8 °F 44% 29.98 in - East 13.8 mph - N/A   Clear
8:00 AM 78.8 °F - 55.4 °F 44% 29.98 in 5.6 mi East 13.8 mph - N/A   Unknown
9:00 AM 82.4 °F 82.5 °F 59.0 °F 45% 30.01 in 5.6 mi East 18.4 mph - N/A   Unknown
10:00 AM 90 °F - 62 °F 30% 29.96 in 6 mi East 19.6 mph - -   Scattered Clouds
10:00 AM 91.4 °F 92.1 °F 62.6 °F 38% 30.01 in 5.6 mi East 19.6 mph - N/A   Unknown
11:00 AM 98.6 °F 100.0 °F 62.6 °F 30% 30.01 in 5.6 mi East 18.4 mph - N/A   Unknown
12:00 PM 102.2 °F 103.6 °F 60.8 °F 26% 30.01 in - East 16.1 mph - N/A   Clear
1:00 PM 103 °F - 57 °F 14% 29.94 in 6 mi East 6.9 mph - -   Partly Cloudy
1:00 PM 104.0 °F 103.4 °F 57.2 °F 21% 30.01 in - East 6.9 mph - N/A   Clear
2:00 PM 105.8 °F 104.9 °F 55.4 °F 19% 29.95 in - Calm Calm - N/A   Clear
3:00 PM 104.0 °F 102.9 °F 55.4 °F 20% 29.95 in 6.2 mi Calm Calm - N/A   Scattered Clouds
4:00 PM 102 °F - 53 °F 11% 29.88 in 6 mi North 5.8 mph - -   Partly Cloudy
4:00 PM 102.2 °F - 51.8 °F 18% 29.95 in 6.2 mi North 5.8 mph - N/A   Scattered Clouds
5:00 PM 102.2 °F - 51.8 °F 18% 29.95 in 5.6 mi NE 6.9 mph - N/A   Scattered Clouds
6:00 PM 100.4 °F - 51.8 °F 20% 29.92 in 5.0 mi North 6.9 mph - N/A   Scattered Clouds
7:00 PM 99 °F - 51 °F 12% 29.87 in 5 mi NNE 6.9 mph - -   Partly Cloudy
7:00 PM 98.6 °F - 51.8 °F 21% 29.92 in 5.0 mi NNE 6.9 mph - N/A   Scattered Clouds
8:00 PM 95.0 °F - 50.0 °F 22% 29.95 in 4.3 mi NNE 8.1 mph - N/A   Scattered Clouds
9:00 PM 93.2 °F - 50.0 °F 23% 29.98 in 4.3 mi NNE 9.2 mph - N/A   Scattered Clouds
10:00 PM 90 °F - 48 °F 15% 29.93 in 5 mi NNE 6.9 mph - -   Scattered Clouds
10:00 PM 89.6 °F - 48.2 °F 24% 29.98 in 5.0 mi NNE 6.9 mph - N/A   Scattered Clouds
11:00 PM 87.8 °F - 48.2 °F 25% 29.98 in 5.6 mi Calm Calm - N/A   Scattered Clouds